User: anonymous   Login
Location: Bishop�s Knoyle
(51.0728°N, 2.1714°W)
Time: 15:14:31
(UTC+00:00)
Language:

PCSat - Orbit

View from above orbital plane
View from above orbital plane
View from above satellite
View from above satellite

Ground track
Ground track

The orbit data is extracted from the following two-line orbital elements,

1 26931U 01043C   21330.92832491 -.00000012  00000-0  27142-4 0  9990
2 26931  67.0511 221.1161 0005913 278.7822  81.2609 14.30645027 52433
Epoch (UTC): 26 November 2021 22:16:47
Eccentricity: 0.0005913
inclination: 67.0511°
perigee height: 785 km
apogee height: 794 km
right ascension of ascending node: 221.1161°
argument of perigee: 278.7822°
revolutions per day: 14.30645027
mean anomaly at epoch: 81.2609°
orbit number at epoch: 5243

The dashed part of the orbit path shows where the satellite is in the earth's shadow,  

DLR